Location: Peach Mountain Observatory
(42.3967°N, 83.9367°W)
Time: 06:32:05
(UTC-05:00)

Explorer 7 - Pass Details

Date: 30 January 2020
Orbit: 485 x 679 km, 50.3° (Epoch: 23 February)

Event Time Altitude Azimuth Distance (km) Brightness Sun altitude
Rises 19:25:32 0° 188° (S) 2,671 10.5 -18.4°
Reaches altitude 10° 19:28:48 10° 161° (SSE) 1,744 9.2 -19.0°
Enters shadow 19:29:04 11° 157° (SSE) 1,694 9.1 -19.0°
